Printer-friendly version

IAU Minor Planet Center

Minor Planet Center

MPEC 2004-O38 : 2003 AD1

The following Minor Planet Electronic Circular may be linked-to from your own Web pages, but must not otherwise be redistributed electronically.


Read MPEC 2004-O37 Read MPEC 2004-O39


M.P.E.C. 2004-O38                                Issued 2004 July 27, 11:48 UT

     The Minor Planet Electronic Circulars contain information on unusual
         minor planets and routine data on comets.  They are published
   on behalf of Commission 20 of the International Astronomical Union by the
          Minor Planet Center, Smithsonian Astrophysical Observatory,
                          Cambridge, MA 02138, U.S.A.

                  Supported in part by the Brinson Foundation
             Prepared using the Tamkin Foundation Computer Network

                              MPC@CFA.HARVARD.EDU
          URL http://cfa-www.harvard.edu/iau/mpc.html  ISSN 1523-6714

                                   2003 AD1

                           Revision to MPEC 2003-A14

Additional Observations:
     K03A01D 2C2004 07 21.59185201 27 58.667-19 38 24.59         22.0 R EO038568
     K03A01D 2C2004 07 21.59578801 27 58.859-19 38 27.14         22.2 R EO038568
     K03A01D 2C2004 07 22.56451201 28 47.251-19 49 04.74         22.1 R EO038568
     K03A01D 2C2004 07 22.56840301 28 47.438-19 49 07.32         22.1 R EO038568

Observer details:
568 Mauna Kea.  Observer F. Bernardi.

Orbital elements:
2003 AD1
Epoch 2004 July 14.0 TT = JDT 2453200.5                 MPC
M 190.74845              (2000.0)            P               Q
n   0.40148963     Peri.   44.66997     -0.88398682     -0.23500212
a   1.8197839      Node   117.61005     +0.18460756     -0.96969120
e   0.3225237      Incl.   27.13535     +0.42951991     -0.06688038
P   2.45           H   18.2           G   0.15           U   2
Residuals in seconds of arc
030102 704  0.3+  0.8+    030107 E14  0.2+  0.7+    030204 198  0.6+  0.7+
030102 704  0.1+  0.6+    030107 E14  0.2+  0.2+    030204 198  0.1-  0.5+
030102 704  0.6+  0.9+    030107 474  0.2+  0.0     030204 198  0.3+  0.1-
030102 704  0.1-  0.1-    030107 474  0.2+  0.2-    030204 198  0.9+  0.0
030103 J95  0.1-  0.3+    030107 474  0.6+  1.7-    030209 198  0.1-  0.3+
030103 J95  0.0   0.0     030108 J95  0.6-  0.3+    030209 198  0.2-  0.2+
030103 J95  0.6+  0.5+    030108 J95  0.1+  0.6+    030209 198  0.2-  0.2+
030103 734  1.0-  1.7+    030108 704  0.3+  0.1+    030214 118  0.3+  0.5+
030103 734  0.2+  0.6-    030108 704  0.6-  0.5-    030214 118  0.1+  0.2+
030103 649  0.2-  0.0     030108 704  0.1+  0.3-    030214 118  0.3-  0.0
030103 649  0.1-  0.1-    030108 704  0.1-  0.5-    030214 118  0.5-  0.5+
030103 649  0.2+  0.2-    030109 704  1.7-  0.4+    030214 046  0.7-  0.8+
030103 651  1.2+  0.8-    030109 704  1.6-  0.7+    030214 046  0.4-  0.0
030103 651  1.2+  0.4-    030109 704  1.0-  0.3-    030214 046  1.1-  0.4+
030103 858  0.6+  0.1+    030109 704  1.0-  0.0     030215 084  0.4-  0.3-
030103 651  0.3+  0.0     030109 E14  0.0   0.6+    030223 240  0.4+  0.2-
030103 704  1.0+  0.9+    030109 E14  0.3+  0.9+    030223 240  0.6+  0.3-
030103 858  0.5+  0.1-    030109 E14  0.4-  0.1+    030223 240  0.7+  0.4-
030103 858  0.0   0.0     030109 084  0.2-  0.9-    030223 240  0.5+  0.2-
030103 704  0.6+  0.4+    030110 704  0.1-  0.1-    030223 240  0.2+  0.3-
030103 448  0.0   0.1-    030110 704  0.0   1.4-    030223 240  0.3+  0.4-
030103 448  0.4+  0.5-    030110 704  0.1+  0.3-    030223 240  0.1-  0.6-
030103 704  1.4+  0.1+    030110 704  0.2-  0.7-    030223 240  0.3+  0.3-
030103 448  0.1+  0.3-    030110 704  0.7+  0.8-    030227 084  0.0   0.1-
030103 926  0.2+  0.5+    030111 941  0.9+  0.7-    030302 084  0.1+  0.4+
030103 926  0.3+  0.4+    030111 941  0.2+  0.1+    030304 084  0.5+  0.9+
030103 926  0.3+  0.0     030111 941  0.1+  0.1+    030305 084  0.6+  0.6+
030103 204  0.2+  0.2-    030111 941  0.6-  0.3+    030306 084  0.5+  0.6+
030103 204  0.1-  0.1+    030112 670  1.4-  0.8+    030307 084  0.1-  0.6+
030103 204  0.1+  0.0     030112 670  0.1+  0.6-    030308 084  0.4+  0.1+
030104 J95  0.6-  0.3-    030118 540  0.1-  0.2-    030309 084  0.4-  0.8+
030104 J95  0.5+  0.2+    030118 540  0.4+  0.1-    030320 084  0.4+  0.2+
030105 704  0.5-  1.1-    030118 540  0.9+  0.6+    030321 084  0.3-  0.1-
030105 704  0.5-  1.1-    030119 448  0.0   0.2-    030325 084  0.1+  0.0
030105 704  0.7-  0.9-    030119 448  0.1-  0.3-    030331 540  0.3-  0.0
030105 704  0.1-  0.8-    030119 448  0.2+  0.1-    030331 540  0.3-  0.2-
030105 704  0.1-  0.7-    030124 670  0.0   0.3-    030331 540  0.3-  0.7-
030105 448  0.0   0.1+    030124 670  0.3+  0.2-    030515 540  0.5+  0.1-
030105 448  0.2+  0.1-    030124 670  0.6+  0.5-    030515 540  0.9-  0.2+
030105 448  0.3+  0.1-    030128 176  0.2-  0.1+    040721 568  0.0   0.0
030107 704  1.1-  0.6-    030128 176  0.1+  0.1+    040721 568  0.0   0.0
030107 704  0.8-  0.3-    030128 176  0.2+  0.1+    040722 568  0.0   0.0
030107 704  0.8-  0.6-    030131 704  0.3-  1.4-    040722 568  0.0   0.0
030107 704  1.3-  0.3-    030131 704  0.1-  1.4-
030107 E14  0.0   0.6+    030131 704  0.2-  1.0-

Ephemeris:
2003 AD1                 a,e,i = 1.82, 0.32, 27                  q = 1.2329
Date    TT    R. A. (2000) Decl.     Delta      r     Elong.  Phase     V
2004 07 24    01 29.94   -20 05.2    1.897    2.396   106.7    24.0    22.6
2004 08 03    01 36.80   -22 11.5    1.791    2.389   113.8    22.9    22.4
2004 08 13    01 41.19   -24 40.6    1.696    2.380   120.9    21.4    22.3
2004 08 23    01 42.62   -27 28.3    1.614    2.370   127.6    19.8    22.1
2004 09 02    01 40.68   -30 26.1    1.549    2.358   133.3    18.1    22.0
2004 09 12    01 35.13   -33 21.7    1.503    2.345   137.3    16.9    21.8
2004 09 22    01 26.09   -35 59.1    1.479    2.330   138.8    16.5    21.8
2004 10 02    01 14.34   -38 01.9    1.476    2.313   137.3    17.1    21.8
2004 10 12    01 01.20   -39 18.1    1.493    2.295   133.2    18.5    21.8
2004 10 22    00 48.40   -39 41.6    1.528    2.275   127.4    20.3    21.9
2004 11 01    00 37.61   -39 14.7    1.579    2.253   120.7    22.3    22.0
2004 11 11    00 29.92   -38 04.6    1.641    2.230   113.5    24.0    22.1
2004 11 21    00 25.84   -36 20.5    1.712    2.205   106.4    25.5    22.3
2004 12 01    00 25.37   -34 11.4    1.788    2.179    99.4    26.5    22.4
2004 12 11    00 28.18   -31 44.5    1.867    2.151    92.7    27.2    22.4
2004 12 21    00 33.87   -29 05.0    1.945    2.121    86.2    27.6    22.5
2004 12 31    00 41.99   -26 17.0    2.022    2.090    80.1    27.6    22.6
2005 01 10    00 52.16   -23 23.0    2.095    2.057    74.2    27.4    22.6
2005 01 20    01 04.09   -20 24.8    2.163    2.023    68.6    26.9    22.6
2005 01 30    01 17.51   -17 24.1    2.225    1.988    63.3    26.3    22.6
2005 02 09    01 32.25   -14 22.0    2.281    1.951    58.3    25.5    22.6
2005 02 19    01 48.20   -11 19.3    2.329    1.913    53.5    24.5    22.6
2005 03 01    02 05.23   -08 17.3    2.371    1.874    48.9    23.5    22.5
2005 03 11    02 23.33   -05 16.6    2.405    1.834    44.5    22.3    22.5
2005 03 21    02 42.47   -02 18.5    2.432    1.793    40.3    21.1    22.4
2005 03 31    03 02.65   +00 36.0    2.452    1.751    36.3    19.8    22.4
2005 04 10    03 23.90   +03 25.8    2.466    1.708    32.5    18.4    22.3
2005 04 20    03 46.28   +06 09.5    2.472    1.665    28.8    16.9    22.2
2005 04 30    04 09.80   +08 45.7    2.473    1.621    25.3    15.4    22.1
2005 05 10    04 34.56   +11 12.8    2.468    1.578    22.0    13.8    21.9
2005 05 20    05 00.61   +13 29.0    2.459    1.535    18.7    12.2    21.8
2005 05 30    05 27.98   +15 32.3    2.444    1.493    15.6    10.5    21.7
2005 06 09    05 56.73   +17 20.7    2.426    1.452    12.6     8.8    21.5
2005 06 19    06 26.87   +18 51.8    2.404    1.412     9.7     6.9    21.4
2005 06 29    06 58.35   +20 03.3    2.379    1.376     7.0     5.1    21.2
2005 07 09    07 31.14   +20 53.0    2.353    1.342     4.5     3.4    21.0
2005 07 19    08 05.09   +21 18.6    2.325    1.311     2.7     2.1    20.9
2005 07 29    08 40.04   +21 18.4    2.298    1.285     3.0     2.4    20.8
2005 08 08    09 15.76   +20 51.1    2.271    1.263     4.8     3.8    20.8
2005 08 18    09 52.00   +19 56.4    2.246    1.247     6.8     5.5    20.9
2005 08 28    10 28.47   +18 35.1    2.225    1.237     8.8     7.2    20.9
2005 09 07    11 04.92   +16 49.1    2.209    1.233    10.7     8.7    21.0
2005 09 17    11 41.09   +14 41.5    2.198    1.235    12.4    10.0    21.0
2005 09 27    12 16.78   +12 16.8    2.193    1.243    13.8    11.1    21.1
2005 10 07    12 51.87   +09 40.1    2.195    1.258    15.1    11.9    21.1
2005 10 17    13 26.23   +06 57.2    2.204    1.277    16.1    12.5    21.2
2005 10 27    13 59.81   +04 13.8    2.220    1.302    17.0    12.9    21.3
2005 11 06    14 32.57   +01 35.2    2.241    1.331    17.8    13.1    21.3
2005 11 16    15 04.48   -00 53.9    2.266    1.364    18.5    13.3    21.4
2005 11 26    15 35.54   -03 10.1    2.293    1.400    19.3    13.5    21.5
2005 12 06    16 05.72   -05 10.9    2.321    1.439    20.3    13.8    21.6

Timothy B. Spahr             (C) Copyright 2004 MPC           M.P.E.C. 2004-O38

Read MPEC 2004-O37 Read MPEC 2004-O39


Our Web policy. Index to the CBAT/MPC/ICQ pages.


Valid HTML 4.01!